FW7828 Weather Reports


time (UTC)temp
F
wind
direction
speed
knots
gust
knots
rain 1hr
in
rain 24hr
in
rain mn
in
humidity
%
barometer
mb
20260507145038 69 52 0.0 0.0 0.00 0.12 0.12 94 1007.7
20260507144534 69 314 0.0 0.0 0.00 0.12 0.12 94 1007.9
20260507144032 69 319 0.0 0.0 0.00 0.12 0.12 94 1007.9
20260507143529 69 216 0.0 0.0 0.00 0.12 0.12 94 1007.9
20260507143026 69 314 0.0 0.0 0.00 0.12 0.12 94 1007.8
20260507142522 69 321 0.0 0.0 0.00 0.12 0.12 94 1007.7
20260507142019 69 328 0.0 0.0 0.00 0.12 0.12 95 1008.0
20260507141515 69 288 0.0 0.0 0.00 0.12 0.12 95 1008.3
20260507141012 69 111 0.0 0.0 0.00 0.12 0.12 94 1008.1
20260507140508 69 72 0.0 0.0 0.00 0.12 0.12 95 1008.0
20260507140006 69 275 0.0 0.0 0.00 0.12 0.12 95 1008.3
20260507135503 69 310 0.0 0.0 0.00 0.12 0.12 95 1008.3
20260507135000 69 252 0.0 0.0 0.00 0.12 0.12 95 1008.5
20260507134456 69 141 0.0 0.9 0.00 0.12 0.12 95 1008.2
20260507133952 69 315 0.0 0.0 0.00 0.12 0.12 95 1008.5
20260507133448 68 309 0.0 0.0 0.00 0.12 0.12 95 1008.4
20260507132947 68 269 0.0 0.0 0.00 0.12 0.12 95 1008.5
20260507132442 68 239 0.0 0.0 0.00 0.12 0.12 95 1008.4
20260507131939 68 216 0.0 0.9 0.00 0.12 0.12 95 1008.4
20260507131437 68 198 0.9 0.9 0.00 0.12 0.12 95 1008.4
20260507130934 68 193 0.0 0.0 0.00 0.12 0.12 95 1008.5
20260507130431 68 239 0.0 0.0 0.00 0.12 0.12 95 1009.0
20260507125929 68 207 0.0 0.0 0.00 0.12 0.12 95 1008.7
20260507125427 68 188 0.9 0.9 0.00 0.12 0.12 95 1008.7
20260507124924 68 193 0.9 0.9 0.07 0.12 0.12 95 1008.7
20260507124420 68 4 0.0 0.0 0.07 0.12 0.12 95 1008.8
20260507123919 68 213 0.0 0.0 0.00 0.11 0.11 95 1008.8
20260507123418 68 192 0.0 0.0 0.00 0.11 0.11 95 1008.9
20260507122912 68 122 0.0 0.0 0.00 0.11 0.11 95 1009.1
20260507122407 68 189 0.0 0.9 0.00 0.11 0.11 95 1009.2
20260507121904 68 221 0.0 0.0 0.00 0.11 0.11 95 1009.0
20260507121359 67 213 0.0 0.0 0.00 0.11 0.11 95 1009.2
20260507120856 67 193 0.9 0.9 0.00 0.11 0.11 95 1009.2
20260507120352 67 198 0.0 0.0 0.00 0.11 0.11 95 1009.3
20260507115848 67 237 0.0 0.0 0.00 0.11 0.11 95 1009.4
20260507115344 67 294 0.0 0.0 0.00 0.11 0.11 95 1009.4
20260507114840 67 237 0.0 0.0 0.00 0.11 0.11 95 1009.5
20260507114337 67 178 0.0 0.9 0.00 0.11 0.11 95 1009.2
20260507113835 67 204 0.0 0.0 0.00 0.11 0.11 95 1009.3
20260507113332 67 231 0.9 0.9 0.00 0.11 0.11 95 1009.4
20260507112829 67 178 0.0 0.0 0.05 0.11 0.11 95 1009.3
20260507112326 67 253 0.0 0.0 0.05 0.11 0.11 95 1009.4
20260507111824 67 247 0.0 0.9 0.00 0.10 0.10 95 1009.1
20260507111320 67 329 0.0 0.0 0.00 0.10 0.10 95 1009.4
20260507110816 67 339 0.0 0.0 0.00 0.10 0.10 95 1009.4
20260507110313 67 277 0.0 0.0 0.00 0.10 0.10 95 1009.1
20260507105810 67 203 1.7 1.7 0.00 0.10 0.10 95 1008.9
20260507105307 67 315 0.0 0.9 0.07 0.10 0.10 95 1009.2
20260507104803 67 190 0.0 0.0 0.07 0.10 0.10 95 1009.4
20260507104259 67 278 0.0 0.9 0.05 0.09 0.09 95 1009.6
20260507103756 67 156 1.7 2.6 0.12 0.09 0.09 95 1009.1
20260507103252 67 158 0.0 0.9 0.07 0.08 0.08 95 1008.9
20260507102748 67 249 0.0 0.0 0.00 0.07 0.07 95 1008.9
20260507102245 67 158 0.0 0.0 0.00 0.07 0.07 95 1008.9
20260507101741 67 282 0.0 0.0 0.00 0.07 0.07 95 1009.1
20260507101231 67 269 0.0 0.0 0.00 0.07 0.07 95 1009.0
20260507100728 67 228 0.0 0.0 0.00 0.07 0.07 95 1008.9
20260507100227 67 326 0.0 0.0 0.00 0.07 0.07 94 1009.0
20260507095724 66 277 0.0 0.0 0.00 0.07 0.07 94 1008.9
20260507095220 66 301 0.0 0.0 0.00 0.07 0.07 94 1008.8
20260507094717 66 221 0.0 0.9 0.00 0.07 0.07 94 1008.9
20260507094215 66 269 0.0 0.0 0.00 0.07 0.07 94 1008.8
20260507093711 66 299 0.0 0.0 0.00 0.07 0.07 94 1008.7
20260507093210 66 212 0.0 0.0 0.00 0.07 0.07 94 1008.8
20260507092707 66 196 0.0 0.0 0.00 0.07 0.07 94 1008.8
20260507092203 66 224 0.0 0.0 0.00 0.07 0.07 94 1009.0
20260507091659 66 227 0.0 0.0 0.00 0.07 0.07 94 1009.0
20260507091156 66 268 0.0 0.0 0.00 0.07 0.07 94 1009.0
20260507090652 67 266 0.0 0.0 0.00 0.07 0.07 94 1008.8
20260507090149 67 264 0.0 0.0 0.00 0.07 0.07 94 1008.8
20260507085646 67 202 0.0 0.0 0.00 0.07 0.07 94 1008.8
20260507085142 67 186 0.0 0.9 0.00 0.07 0.07 94 1008.5
20260507084640 67 193 0.0 0.0 0.00 0.07 0.07 94 1008.8
20260507084136 67 45 0.0 0.0 0.00 0.07 0.07 93 1009.0
20260507083633 67 330 0.0 0.0 0.00 0.07 0.07 93 1009.1
20260507083130 67 299 0.0 0.0 0.00 0.07 0.07 93 1009.1
20260507082625 67 290 0.0 0.0 0.00 0.07 0.07 93 1009.4
20260507082122 67 53 0.0 0.0 0.00 0.07 0.07 93 1009.5
20260507081619 67 260 0.0 0.0 0.00 0.07 0.07 93 1009.5
20260507081115 67 8 0.0 0.0 0.00 0.07 0.07 93 1009.8
20260507080612 67 255 0.9 1.7 0.00 0.07 0.07 93 1009.8
20260507080108 67 199 0.9 0.9 0.05 0.07 0.07 93 1010.1
20260507075603 67 277 0.0 0.0 0.05 0.07 0.07 93 1009.9
20260507075100 67 288 0.9 0.9 0.00 0.06 0.06 92 1009.8
20260507074557 67 278 0.9 0.9 0.00 0.06 0.06 92 1009.9
20260507074055 67 216 0.9 0.9 0.07 0.06 0.06 92 1009.4
20260507073550 67 196 0.9 1.7 0.07 0.06 0.06 92 1009.5
20260507073047 67 305 0.9 0.9 0.00 0.05 0.05 91 1009.8
20260507072545 67 297 0.0 0.0 0.00 0.05 0.05 90 1009.6
20260507072042 68 336 0.9 0.9 0.00 0.05 0.05 89 1009.5
20260507071539 68 141 0.9 1.7 0.05 0.05 0.05 89 1009.3
20260507071036 68 247 0.9 1.7 0.12 0.05 0.05 88 1009.3
20260507070533 68 233 0.0 0.9 0.12 0.04 0.04 88 1009.4
20260507070030 68 209 0.9 1.7 0.17 0.03 0.03 87 1009.4
20260507065526 69 159 2.6 4.3 0.12 0.02 0.02 86 1009.6
20260507065023 69 175 2.6 4.3 0.00 0.00 0.00 85 1010.0
20260507064521 69 233 0.0 0.0 0.00 0.00 0.00 85 1010.1
20260507064020 69 193 0.9 0.9 0.00 0.00 0.00 85 1010.2
20260507063516 69 191 0.0 0.0 0.00 0.00 0.00 86 1010.2
20260507063014 69 206 0.0 0.9 0.00 0.00 0.00 86 1010.0
20260507062510 69 173 0.0 0.9 0.00 0.00 0.00 86 1010.1
20260507062008 69 195 0.0 0.0 0.00 0.00 0.00 87 1010.4
20260507061505 69 240 0.0 0.0 0.00 0.00 0.00 87 1010.5
20260507061004 69 271 0.0 0.0 0.00 0.00 0.00 87 1010.6
20260507060501 69 248 0.0 0.0 0.00 0.00 0.00 86 1010.7
20260507055956 69 250 0.0 0.0 0.00 0.00 0.00 86 1010.5
20260507055452 69 249 0.0 0.0 0.00 0.00 0.00 85 1010.5
20260507054949 69 259 0.0 0.0 0.00 0.00 0.00 85 1010.6
20260507054445 69 327 0.0 0.0 0.00 0.00 0.00 85 1010.5
20260507053942 69 271 0.0 0.0 0.00 0.00 0.00 84 1010.5
20260507053440 69 292 0.0 0.0 0.00 0.00 0.00 84 1010.5
20260507052938 69 288 0.0 0.0 0.00 0.00 0.00 84 1010.5
20260507052436 69 185 0.0 0.0 0.00 0.00 0.00 84 1010.5
20260507051932 69 231 0.0 0.0 0.00 0.00 0.00 83 1010.5
20260507051430 69 182 0.0 0.0 0.00 0.00 0.00 83 1010.3
20260507050927 69 172 0.9 0.9 0.00 0.00 0.00 83 1010.5
20260507050423 69 199 0.0 0.0 0.00 0.00 0.00 83 1010.7
20260507045920 70 209 0.0 0.0 0.00 0.00 0.00 83 1010.6
20260507045416 69 88 0.0 0.0 0.00 0.00 0.00 83 1010.6
20260507044914 69 226 0.0 0.0 0.00 0.00 0.00 83 1010.6
20260507044410 69 228 0.0 0.0 0.00 0.00 0.00 83 1010.5
20260507043907 69 229 0.0 0.0 0.00 0.00 0.00 83 1010.4
20260507043403 69 213 0.0 0.0 0.00 0.00 0.00 83 1010.6
20260507042900 69 233 0.0 0.0 0.00 0.00 0.00 82 1010.5
20260507042356 69 234 0.0 0.0 0.00 0.00 0.00 82 1010.1
20260507041852 69 230 0.0 0.0 0.00 0.00 0.00 82 1010.6
20260507041349 69 224 0.0 0.0 0.00 0.00 0.00 82 1010.6
20260507040847 69 209 0.0 0.0 0.00 0.00 0.00 82 1010.6
20260507040342 69 203 0.0 0.0 0.00 0.00 0.00 82 1010.6
20260507035838 69 232 0.0 0.0 0.00 0.00 0.00 81 1010.3
20260507035334 69 225 0.0 0.9 0.00 0.00 0.00 82 1010.5
20260507034832 69 236 0.0 0.0 0.00 0.00 0.00 81 1010.9
20260507034328 69 239 0.0 0.0 0.00 0.00 0.00 80 1010.7
20260507033826 69 248 0.0 0.0 0.00 0.00 0.00 79 1010.8
20260507033324 70 256 0.0 0.0 0.00 0.00 0.00 80 1010.6
20260507032821 70 169 0.0 0.0 0.00 0.00 0.00 81 1010.6
20260507032317 70 211 0.0 0.9 0.00 0.00 0.00 81 1010.7
20260507031814 70 206 0.0 0.9 0.00 0.00 0.00 80 1010.8
20260507031311 70 217 0.0 0.0 0.00 0.00 0.00 80 1010.8
20260507030807 70 198 0.9 1.7 0.00 0.00 0.00 80 1010.8
20260507030305 70 218 0.0 0.9 0.00 0.00 0.00 80 1010.6
20260507025801 69 209 0.0 0.0 0.00 0.00 0.00 80 1010.5
20260507025259 69 258 0.0 0.0 0.00 0.00 0.00 77 1010.7
20260507024757 70 260 0.0 0.0 0.00 0.00 0.00 76 1010.9
20260507024254 70 227 0.0 0.0 0.00 0.00 0.00 78 1010.5
20260507023749 71 264 0.0 0.0 0.00 0.00 0.00 76 1010.4
20260507023246 71 247 0.0 0.9 0.00 0.00 0.00 76 1010.3
20260507022743 71 203 0.9 0.9 0.00 0.00 0.00 76 1010.6
20260507022239 71 214 1.7 1.7 0.00 0.00 0.00 76 1010.8
20260507021736 71 230 0.9 0.9 0.00 0.00 0.00 76 1010.6
20260507021231 71 193 0.9 0.9 0.00 0.00 0.00 76 1010.5
20260507020730 71 178 1.7 1.7 0.00 0.00 0.00 76 1010.6
20260507020226 71 172 0.0 0.0 0.00 0.00 0.00 76 1010.6
20260507015724 71 217 0.0 0.9 0.00 0.00 0.00 75 1010.3
20260507015221 71 176 0.0 0.9 0.00 0.00 0.00 75 1010.5
20260507014717 71 181 1.7 1.7 0.00 0.00 0.00 75 1010.7
20260507014214 71 176 0.0 0.0 0.00 0.00 0.00 75 1010.6
20260507013710 72 225 1.7 1.7 0.00 0.00 0.00 73 1010.7
20260507013208 72 212 0.9 1.7 0.00 0.00 0.00 73 1010.6
20260507012705 72 149 0.9 1.7 0.00 0.00 0.00 72 1010.6
20260507012201 72 207 0.9 0.9 0.00 0.00 0.00 72 1010.6
20260507011659 72 177 3.5 4.3 0.00 0.00 0.00 72 1010.7
20260507011155 72 216 1.7 1.7 0.00 0.00 0.00 71 1010.7
20260507010654 72 237 0.9 0.9 0.00 0.00 0.00 71 1010.4
20260507010150 72 205 2.6 4.3 0.00 0.00 0.00 70 1010.7
20260507005648 72 201 0.9 0.9 0.00 0.00 0.00 70 1010.6
20260507005144 73 220 0.9 0.9 0.00 0.00 0.00 71 1010.5
20260507004641 73 224 1.7 1.7 0.00 0.00 0.00 70 1010.4
20260507004139 73 220 1.7 2.6 0.00 0.00 0.00 69 1010.3
20260507003635 73 190 1.7 1.7 0.00 0.00 0.00 69 1010.2
20260507003130 74 206 1.7 2.6 0.00 0.00 0.00 69 1010.4
20260507002626 74 198 0.9 1.7 0.00 0.00 0.00 68 1010.3
20260507002122 74 205 0.9 1.7 0.00 0.00 0.00 68 1010.2
20260507001619 74 221 1.7 1.7 0.00 0.00 0.00 68 1010.2
20260507001117 74 195 4.3 6.1 0.00 0.00 0.00 70 1010.1
20260507000613 74 183 0.9 1.7 0.00 0.00 0.00 71 1009.9
20260507000108 74 212 3.5 6.1 0.00 0.00 0.00 71 1009.8
20260506235606 74 194 4.3 5.2 0.00 0.00 0.00 70 1010.0
20260506235106 75 237 1.7 2.6 0.00 0.00 0.00 70 1009.9
20260506234604 75 237 3.5 6.1 0.00 0.00 0.00 70 1009.9
20260506234101 75 211 2.6 2.6 0.00 0.00 0.00 71 1009.9
20260506233558 75 225 2.6 5.2 0.00 0.00 0.00 72 1009.9
20260506233054 75 198 2.6 4.3 0.00 0.00 0.00 71 1009.9
20260506232550 75 215 2.6 2.6 0.00 0.00 0.00 73 1009.6
20260506232046 75 185 2.6 5.2 0.00 0.00 0.00 73 1009.8
20260506231544 75 215 4.3 6.1 0.00 0.00 0.00 72 1009.5
20260506231042 76 227 1.7 1.7 0.00 0.00 0.00 73 1009.8
20260506230538 75 229 2.6 4.3 0.00 0.00 0.00 74 1009.6
20260506230035 75 201 2.6 2.6 0.00 0.00 0.00 74 1009.5
20260506225532 76 181 5.2 7.0 0.00 0.00 0.00 73 1009.3
20260506225028 75 192 4.3 6.1 0.00 0.00 0.00 74 1009.3
20260506224525 74 216 3.5 4.3 0.00 0.00 0.00 77 1009.4
20260506224022 74 179 2.6 2.6 0.00 0.00 0.00 78 1009.4
20260506223517 75 160 0.9 0.9 0.00 0.00 0.00 77 1009.4
20260506223014 75 169 3.5 4.3 0.00 0.00 0.00 75 1009.5
20260506222511 75 219 0.9 1.7 0.00 0.00 0.00 76 1009.3
20260506222008 76 207 0.9 1.7 0.00 0.00 0.00 76 1009.5
20260506221505 75 206 0.9 0.9 0.00 0.00 0.00 75 1009.4
20260506221003 75 250 0.9 1.7 0.00 0.00 0.00 75 1009.4
20260506220458 75 199 0.9 0.9 0.00 0.00 0.00 76 1009.6
20260506215954 75 189 3.5 4.3 0.00 0.00 0.00 76 1009.5
20260506215451 75 195 0.9 1.7 0.00 0.00 0.00 77 1009.6
20260506214947 75 222 0.9 0.9 0.00 0.00 0.00 76 1009.5
20260506214444 76 211 2.6 2.6 0.00 0.00 0.00 73 1009.4
20260506213942 76 164 1.7 4.3 0.00 0.00 0.00 74 1010.0
20260506213439 76 210 0.9 0.9 0.00 0.00 0.00 73 1009.7
20260506212936 75 208 3.5 4.3 0.00 0.00 0.00 72 1010.0
20260506212432 76 168 0.9 0.9 0.00 0.00 0.00 73 1010.1
20260506211932 77 218 0.9 0.9 0.00 0.00 0.00 69 1009.8
20260506211428 77 199 0.9 1.7 0.00 0.00 0.00 69 1009.2
20260506210926 77 166 0.9 2.6 0.00 0.00 0.00 68 1009.9
20260506210422 77 208 0.9 1.7 0.00 0.00 0.00 69 1009.8
20260506205919 77 207 0.9 0.9 0.00 0.00 0.00 70 1010.1
20260506205415 77 219 0.0 0.9 0.00 0.00 0.00 70 1010.3
20260506204912 77 200 2.6 2.6 0.00 0.00 0.00 69 1010.4
20260506204410 77 167 0.0 0.9 0.00 0.00 0.00 69 1010.5
20260506203907 78 170 1.7 2.6 0.00 0.00 0.00 68 1010.4
20260506203404 78 217 1.7 2.6 0.00 0.00 0.00 67 1010.5
20260506202901 78 222 0.9 0.9 0.00 0.00 0.00 67 1010.7
20260506202358 77 216 0.0 0.9 0.00 0.00 0.00 69 1010.5
20260506201854 77 257 0.9 0.9 0.00 0.00 0.00 69 1010.7
20260506201352 77 218 0.0 0.9 0.00 0.00 0.00 70 1010.8
20260506200848 76 197 1.7 1.7 0.00 0.00 0.00 69 1010.6
20260506200344 77 171 2.6 2.6 0.00 0.00 0.00 71 1010.8
20260506195840 77 175 2.6 4.3 0.00 0.00 0.00 68 1010.7
20260506195338 77 223 0.0 0.0 0.00 0.00 0.00 70 1011.0
20260506194835 77 177 2.6 4.3 0.00 0.00 0.00 70 1011.1
20260506194331 76 80 0.0 0.0 0.00 0.00 0.00 71 1011.1
20260506193829 77 158 1.7 1.7 0.00 0.00 0.00 71 1011.1
20260506193326 78 168 2.6 2.6 0.00 0.00 0.00 67 1011.4
20260506192822 78 318 0.9 1.7 0.00 0.00 0.00 67 1011.4
20260506192319 78 181 1.7 1.7 0.00 0.00 0.00 68 1011.4
20260506191816 78 177 0.0 0.9 0.00 0.00 0.00 68 1011.5
20260506191312 78 181 1.7 1.7 0.00 0.00 0.00 68 1011.7
20260506190809 78 281 0.9 0.9 0.00 0.00 0.00 66 1011.4
20260506190306 78 175 0.9 2.6 0.00 0.00 0.00 66 1011.8
20260506185803 78 161 0.9 0.9 0.00 0.00 0.00 68 1011.8
20260506185259 78 214 1.7 1.7 0.00 0.00 0.00 67 1011.8
20260506184756 78 180 2.6 4.3 0.00 0.00 0.00 68 1011.8
20260506184254 77 249 0.0 0.0 0.00 0.00 0.00 70 1011.7
20260506183751 77 207 1.7 2.6 0.00 0.00 0.00 67 1011.6
20260506183251 77 240 3.5 4.3 0.00 0.00 0.00 68 1011.9
20260506182749 78 230 0.0 0.0 0.00 0.00 0.00 67 1011.9
20260506182246 77 182 2.6 2.6 0.00 0.00 0.00 69 1012.0
20260506181743 77 180 1.7 1.7 0.00 0.00 0.00 67 1012.2
20260506181241 77 199 1.7 2.6 0.00 0.00 0.00 67 1012.4
20260506180738 78 173 1.7 1.7 0.00 0.00 0.00 67 1012.4
20260506180234 79 212 1.7 4.3 0.00 0.00 0.00 66 1012.6
20260506175730 79 263 0.9 0.9 0.00 0.00 0.00 64 1012.5
20260506175227 78 181 3.5 6.1 0.00 0.00 0.00 65 1012.5
20260506174725 78 168 1.7 2.6 0.00 0.00 0.00 66 1012.5
20260506174221 78 172 4.3 5.2 0.00 0.00 0.00 66 1012.5
20260506173719 77 180 2.6 4.3 0.00 0.00 0.00 67 1012.7
20260506173216 77 171 3.5 4.3 0.00 0.00 0.00 67 1012.4
20260506172713 77 169 3.5 7.0 0.00 0.00 0.00 66 1012.5
20260506172209 78 212 1.7 1.7 0.00 0.00 0.00 63 1012.7
20260506171707 77 207 3.5 5.2 0.00 0.00 0.00 67 1012.6
20260506171204 77 195 4.3 5.2 0.00 0.00 0.00 68 1012.6
20260506170702 76 226 1.7 1.7 0.00 0.00 0.00 69 1012.4
20260506170158 76 167 2.6 5.2 0.00 0.00 0.00 69 1012.7
20260506165657 77 169 4.3 6.1 0.00 0.00 0.00 68 1012.7
20260506165153 77 270 1.7 1.7 0.00 0.00 0.00 67 1012.8
20260506164650 76 210 4.3 6.1 0.00 0.00 0.00 68 1012.9
20260506164148 77 181 3.5 5.2 0.00 0.00 0.00 69 1013.1
20260506163644 76 207 6.1 7.0 0.00 0.00 0.00 70 1013.1
20260506163139 76 204 4.3 5.2 0.00 0.00 0.00 72 1013.3
20260506162635 75 206 0.9 1.7 0.00 0.00 0.00 72 1013.4
20260506162133 74 193 3.5 5.2 0.00 0.00 0.00 73 1013.4
20260506161630 74 181 3.5 5.2 0.00 0.00 0.00 74 1013.6
20260506161127 75 177 3.5 4.3 0.00 0.00 0.00 74 1013.7
20260506160624 74 176 2.6 4.3 0.00 0.00 0.00 74 1013.8
20260506160121 74 156 2.6 2.6 0.00 0.00 0.00 74 1014.1
20260506155620 74 177 1.7 1.7 0.00 0.00 0.00 74 1014.2
20260506155116 73 123 1.7 2.6 0.00 0.00 0.00 75 1014.2
20260506153219 73 170 1.7 1.7 0.00 0.00 0.00 76 1014.2
20260506152715 72 180 2.6 2.6 0.00 0.00 0.00 77 1014.2
20260506152213 72 155 3.5 4.3 0.00 0.00 0.00 78 1014.3
20260506151712 72 177 0.9 0.9 0.00 0.00 0.00 77 1014.5
20260506151208 72 165 4.3 5.2 0.00 0.00 0.00 77 1014.1
20260506150704 72 108 2.6 4.3 0.00 0.00 0.00 77 1014.4
20260506150201 72 171 0.9 0.9 0.00 0.00 0.00 77 1014.6
20260506145658 72 189 1.7 1.7 0.00 0.00 0.00 77 1014.5